ボク彗星

C/2022 U4 ( Bok )

English version
Home page
Updated on October 7, 2023

---------------------------------------------------------------------

・ プロフィール

発見日 2022年10月26日
発見光度 20.2等
発見者 Bok NEO Survey

・ 写真集

・ 軌道要素

Epoch 2023 Sept. 13.0 TT = JDT 2460200.5
T 2023 Aug. 3.67325 TT                                  Rudenko
q   2.8984047            (2000.0)            P               Q
z  +0.0003064      Peri.   89.00786     -0.46218872     +0.67313884
 +/-0.0000002      Node   132.92503     -0.68625601     -0.68380728
e   0.9991118      Incl.   52.03489     +0.56163536     -0.28158782
>From 694 observations 2022 Jan. 7-2023 Sept. 24, mean residual 0".5.

・ 光度変化

        m1 = 10.0 + 5 logΔ + 11.0 log r

---------------------------------------------------------------------

軌道要素はM.P.E.C. 2023-S260に掲載されたものです。
光度グラフはComet for Windowsで作成したものです。

---------------------------------------------------------------------

Copyright(C) Seiichi Yoshida (comet@aerith.net). All rights reserved.